Wind_Speed
42 42 41 40 39 40 41 44 45 41 39 40 39 38 39 37 35 34 32 29 26 22 19 18 17 15 12 9 8 10 9 8 5 2 4 7 10 12 11 10 10 10 10 12 15 17 17 15 15 17 22 24 24 23 22 21 22 23 22 20 19 18 17 16 15 15 14 13 12 11 11 9 8 8 9 10 10 11 12 13 14 15 16 16 16 17
42 40 39 38 37 38 41 43 45 43 41 42 42 41 41 41 39 36 35 34 30 25 20 18 19 17 14 11 10 11 10 7 6 4 5 7 9 11 12 11 11 11 10 12 15 17 17 17 17 18 21 24 25 24 23 23 23 22 21 20 19 18 17 16 15 15 14 13 13 12 11 9 7 7 8 9 10 10 11 13 14 14 15 16 15 16
40 37 37 37 37 38 40 43 44 44 42 43 46 45 45 46 42 38 38 36 33 28 22 19 20 19 17 13 12 12 11 8 6 5 5 6 8 11 12 12 12 12 11 12 15 17 18 18 19 20 23 24 25 26 25 25 24 22 21 20 19 18 17 16 15 15 14 13 13 11 11 9 7 6 7 8 9 9 10 11 13 13 14 14 14 15
38 37 38 38 37 38 39 41 43 42 41 43 47 48 49 47 42 41 40 37 35 32 26 22 21 21 19 15 14 14 11 9 6 6 5 6 7 10 12 13 13 13 13 13 14 16 19 20 22 24 25 25 25 25 26 27 25 22 21 20 19 18 16 15 15 14 13 13 12 11 10 9 7 6 5 6 7 8 9 10 11 12 12 13 13 14
38 37 38 37 36 37 37 39 40 40 40 42 46 50 50 46 42 42 39 37 38 35 30 25 22 23 21 18 17 15 13 11 7 6 6 7 9 10 12 14 14 14 14 14 15 17 20 22 25 27 27 26 25 25 26 26 24 22 21 21 20 18 16 15 14 13 13 12 11 11 10 9 7 5 4 5 6 7 8 8 9 10 10 11 12 12
38 36 37 37 36 36 36 37 38 38 38 40 45 50 48 43 42 41 39 39 39 38 34 28 25 25 23 20 19 17 15 13 8 6 7 8 11 13 13 14 15 15 15 15 17 19 22 25 27 28 27 26 27 28 28 26 24 23 22 22 20 17 15 14 13 13 12 12 11 10 9 8 7 5 3 3 4 6 7 6 7 8 9 9 10 10
37 35 36 35 34 34 35 36 35 35 35 37 41 44 41 39 41 42 40 39 40 40 36 31 29 28 26 23 20 19 18 15 10 7 7 8 12 15 15 15 15 15 15 16 19 22 24 26 28 27 25 26 28 28 28 26 25 23 23 22 19 17 15 14 14 13 12 12 11 10 9 7 6 4 2 1 2 4 5 5 5 6 7 7 8 9
37 33 33 33 31 32 33 33 31 31 33 35 36 37 38 38 40 42 41 39 41 41 37 34 34 32 30 26 21 20 20 16 12 9 8 8 11 14 15 15 15 14 14 18 21 24 25 27 28 28 27 28 28 27 26 25 24 23 23 21 19 17 16 15 14 14 13 12 11 10 9 7 6 4 2 1 1 2 3 4 4 5 5 6 6 7
35 29 31 31 30 31 31 29 28 30 32 32 32 35 37 36 37 40 41 41 43 42 38 38 37 35 34 28 23 23 22 18 14 11 9 9 10 12 14 14 14 14 15 19 23 25 27 29 29 29 29 30 30 27 25 24 23 23 22 21 20 19 18 18 17 16 15 13 12 11 10 8 7 5 3 2 2 2 3 3 3 3 4 5 5 5
33 31 32 31 32 33 29 27 28 30 29 28 30 33 33 32 34 37 39 42 44 42 42 43 41 39 36 30 26 27 24 19 17 14 12 11 11 12 13 15 15 16 18 21 23 26 29 31 30 29 30 31 31 28 26 25 24 23 22 21 21 20 20 19 19 18 16 15 13 12 10 9 8 6 5 3 3 4 4 3 3 3 4 4 3 4
37 36 34 34 37 34 29 28 29 29 27 26 28 29 29 29 31 34 37 41 44 45 48 47 44 41 37 33 32 31 25 19 19 18 14 12 12 12 14 15 16 18 20 22 23 27 30 32 30 29 29 31 32 30 28 26 25 24 23 21 20 19 18 18 18 17 16 15 13 11 11 9 8 7 6 5 5 6 6 6 4 3 4 5 4 4
43 39 37 40 42 36 33 32 31 29 26 25 26 26 26 27 28 31 35 39 44 48 49 47 45 43 39 36 35 32 25 21 22 20 16 14 14 13 14 16 17 19 22 24 25 27 30 30 30 29 28 30 31 31 29 27 26 25 23 22 20 18 16 15 16 16 16 16 14 12 11 10 9 8 8 7 7 7 8 9 7 6 5 6 6 6
48 44 43 46 44 40 37 35 32 30 28 26 26 25 24 24 25 28 32 36 42 46 47 46 45 45 42 38 36 33 27 24 24 22 19 18 16 15 16 17 18 20 23 25 27 29 29 28 28 28 28 29 31 31 31 30 28 27 25 24 22 20 18 17 16 17 17 17 16 14 13 12 11 10 9 8 8 9 10 11 11 10 8 7 7 8
52 49 46 45 44 42 40 37 35 33 31 29 26 24 22 20 23 26 29 32 37 41 43 44 46 48 45 40 38 36 32 28 26 25 23 21 19 18 17 17 18 21 24 26 29 30 29 26 26 27 28 30 31 31 32 31 30 29 27 25 23 22 21 20 19 18 18 19 18 16 15 13 12 11 11 11 10 10 11 13 13 12 11 9 8 8
53 49 45 44 46 46 43 40 37 34 32 29 26 23 20 20 25 27 25 26 30 34 39 43 47 50 48 44 41 38 36 32 29 27 26 24 22 21 19 19 19 21 24 27 30 31 30 27 27 27 28 30 30 31 32 32 31 30 29 27 25 24 23 23 21 19 18 19 19 18 16 15 13 13 13 12 12 12 12 14 14 14 14 12 10 9
53 49 48 48 48 46 44 41 37 34 33 30 25 22 22 25 26 24 21 22 25 29 35 40 46 50 49 46 43 41 39 36 32 30 28 27 26 24 23 22 21 22 25 27 30 31 30 29 28 28 29 30 30 31 31 32 32 31 30 30 28 26 25 24 22 20 20 20 20 19 18 16 15 15 15 14 14 14 15 15 15 15 16 14 12 10
53 51 52 52 49 46 46 44 39 35 34 29 24 24 27 26 21 19 21 22 24 28 33 38 43 48 50 47 46 44 42 39 37 34 32 30 28 27 26 25 23 23 25 27 28 28 29 29 29 29 29 29 30 30 30 30 30 30 31 31 30 28 27 25 23 21 21 21 20 19 18 18 17 16 16 15 15 15 16 16 16 16 17 17 15 13
53 53 54 53 51 50 49 45 39 34 31 26 24 27 27 21 16 19 22 22 24 29 31 34 38 43 49 49 47 47 45 43 41 39 36 33 30 29 29 29 27 25 25 26 27 27 28 29 30 30 30 30 30 30 29 28 28 28 29 30 29 28 26 24 23 22 21 21 20 19 18 18 18 17 17 16 16 17 17 17 17 18 19 19 18 16
55 54 55 54 53 52 49 45 39 32 29 28 28 26 24 19 17 20 22 23 26 28 28 29 31 37 44 47 46 47 47 46 44 42 39 35 33 32 32 31 30 28 27 27 28 28 29 30 31 31 31 31 30 29 28 27 27 28 29 29 28 27 25 24 23 22 21 20 20 19 19 19 19 19 18 18 19 19 19 19 20 20 21 21 22 20
57 57 56 56 55 53 49 44 38 34 32 32 31 27 25 24 22 22 24 24 25 26 25 27 28 31 37 41 42 45 47 47 45 43 40 38 36 34 33 32 31 30 29 29 29 29 30 30 31 31 30 30 29 29 28 27 28 29 29 30 29 28 26 25 24 22 22 21 21 21 21 21 21 21 21 21 22 22 21 21 22 23 24 24 24 24
59 59 58 58 58 54 49 45 41 39 38 36 34 32 31 30 28 27 26 25 25 27 27 28 28 28 31 35 38 42 45 47 46 44 42 40 38 36 35 34 33 32 31 31 31 31 31 31 31 30 30 29 29 28 28 29 30 31 32 32 31 30 29 27 26 25 24 24 23 23 23 22 23 23 24 24 23 23 22 22 23 24 25 27 27 25
61 60 59 60 59 54 50 48 47 46 43 40 37 36 35 33 30 28 27 27 27 27 27 27 26 25 26 29 32 36 42 47 48 47 45 43 41 40 38 37 35 34 33 33 33 33 33 32 31 31 31 30 29 29 29 30 31 32 33 34 33 32 32 31 30 28 27 27 26 26 25 25 25 26 26 26 25 24 23 23 24 24 25 28 28 26
64 61 61 61 60 56 53 52 52 48 46 43 39 37 36 33 29 27 26 27 27 25 25 23 21 20 21 23 25 27 33 41 46 49 48 47 45 44 43 41 40 38 37 36 35 35 34 34 34 33 32 32 31 31 31 32 33 34 35 34 34 34 36 35 34 32 32 31 30 29 28 28 28 28 28 29 28 27 27 26 26 26 28 29 29 28
67 65 63 62 62 60 57 55 54 51 48 45 41 39 36 34 32 30 30 30 26 22 21 20 19 19 19 20 21 21 25 31 40 46 49 49 48 47 46 45 44 43 42 40 38 37 36 35 35 35 35 35 35 35 35 35 36 37 36 35 36 37 38 37 36 36 36 36 34 33 32 31 31 31 31 31 31 31 30 30 29 30 30 31 31 30
70 68 65 65 65 63 60 57 55 52 49 45 43 41 38 37 37 35 33 30 25 22 22 19 21 23 22 20 20 20 22 26 33 41 47 50 51 50 49 48 46 45 43 42 41 40 39 38 37 37 37 38 39 38 38 39 39 39 38 38 38 39 39 38 38 39 40 40 39 38 37 35 34 34 34 33 33 33 33 33 33 32 33 33 33 33
73 71 68 67 66 64 61 57 55 53 51 47 45 43 40 40 39 36 33 30 27 26 24 19 23 29 26 23 22 21 22 24 27 33 41 47 50 51 50 49 48 46 44 44 44 43 42 42 41 40 39 40 40 40 41 41 41 41 41 41 41 41 41 40 41 42 42 43 42 42 41 40 39 38 37 36 36 35 35 35 35 35 35 36 36 35
76 73 71 69 67 65 63 61 60 58 55 52 50 47 45 44 41 38 35 31 29 29 26 24 28 33 29 25 24 23 23 23 25 28 33 39 45 49 50 50 49 48 48 47 46 45 44 44 44 43 43 42 42 42 43 43 44 44 44 44 44 43 42 43 43 44 45 45 45 45 45 44 42 41 40 39 39 38 38 37 37 37 37 37 38 37
79 76 74 71 69 68 66 65 64 62 59 56 54 52 49 47 45 41 36 33 33 31 28 30 33 34 31 28 26 25 25 25 25 26 27 31 36 42 47 49 50 50 50 50 49 48 47 46 46 45 45 45 45 45 45 45 45 46 46 46 46 45 45 45 45 45 46 47 47 47 47 46 44 43 42 41 41 41 40 39 39 39 39 39 39 39
83 80 77 74 72 70 69 68 66 65 62 60 57 55 52 50 48 44 40 38 37 34 33 36 37 35 33 31 28 28 28 26 25 25 25 27 29 33 38 42 46 50 51 52 52 51 51 50 49 48 48 47 47 47 47 47 47 47 47 47 47 47 47 46 46 46 47 47 48 48 48 46 45 44 43 43 43 43 42 41 41 42 42 42 41 41
86 83 80 78 75 73 71 70 68 67 65 63 60 57 55 53 51 48 45 42 41 38 37 39 38 35 35 35 32 31 30 28 27 26 27 27 26 27 29 33 38 43 47 51 52 53 53 52 52 51 50 50 50 50 50 50 50 49 49 49 48 48 48 47 46 47 48 48 49 49 48 47 46 46 45 45 45 45 44 43 43 44 44 44 44 44
89 87 84 81 79 76 75 73 71 69 68 66 63 60 58 56 53 52 49 47 45 43 41 41 39 37 38 40 39 36 32 31 30 29 28 26 25 25 27 29 32 36 40 45 48 51 53 54 54 54 54 54 53 53 53 53 53 53 52 52 51 51 50 49 49 49 50 50 50 50 50 49 48 48 48 48 47 47 46 46 46 46 46 47 47 47
92 90 87 85 83 80 78 76 74 72 70 68 66 63 60 58 56 55 53 51 49 48 45 44 41 39 42 45 44 41 35 32 32 32 29 26 25 25 26 27 29 31 34 38 41 44 48 51 53 54 56 57 57 56 56 56 55 55 55 55 54 54 52 51 51 52 52 53 52 52 53 52 51 51 51 51 50 49 48 48 48 49 49 49 49 49
94 92 90 89 86 84 82 80 77 75 73 71 68 66 63 61 59 58 56 54 53 51 49 47 44 43 47 47 44 42 39 35 34 33 31 27 25 25 26 26 27 28 30 32 35 38 41 44 47 50 53 56 57 58 58 58 58 58 58 57 56 55 54 54 54 55 55 56 55 55 56 56 55 55 55 55 53 52 51 51 51 52 52 51 51 52
95 94 93 92 89 87 85 83 81 79 75 71 69 68 67 64 62 61 59 57 56 54 52 50 48 48 50 50 46 45 46 43 38 35 33 30 27 27 27 28 28 28 29 30 31 33 36 38 41 44 48 51 55 57 58 59 60 60 60 59 59 58 57 58 58 58 58 58 58 58 58 58 59 60 59 58 56 55 55 55 55 56 55 55 55 54
96 95 95 94 92 90 89 88 86 82 77 72 71 70 69 67 65 64 62 60 59 57 55 52 51 51 52 52 50 50 50 48 43 38 35 33 31 31 30 30 30 30 30 30 31 32 33 35 37 40 43 46 49 52 55 57 59 59 60 61 61 61 61 61 61 61 61 61 61 61 61 61 62 63 62 61 59 58 58 58 59 59 58 58 57 57
98 96 95 95 94 94 93 92 88 83 78 75 74 73 72 70 69 67 65 64 62 60 57 54 53 53 54 54 53 53 52 50 47 43 40 38 36 34 33 33 33 33 32 32 33 33 34 34 35 37 39 41 44 46 49 52 54 56 57 59 60 61 62 63 63 64 65 65 65 65 64 64 64 65 65 64 62 61 61 62 62 62 61 60 59 59
100 99 97 95 95 95 95 93 89 84 82 79 78 77 75 73 71 70 68 67 65 62 59 57 56 56 55 56 56 55 54 52 49 46 45 44 42 40 38 36 35 35 35 34 34 35 35 35 36 36 37 38 40 41 43 45 47 49 52 54 55 57 59 60 62 65 66 67 68 68 67 67 67 67 68 67 66 65 65 66 66 65 65 64 62 61
102 100 98 97 95 95 95 94 91 88 84 82 81 80 78 76 75 73 71 69 67 65 62 61 60 59 59 59 58 58 57 54 50 49 50 50 47 45 42 40 38 37 37 36 36 36 36 36 37 38 39 39 39 39 39 40 42 43 46 48 50 51 52 54 58 62 63 65 65 66 66 67 68 69 70 70 69 69 69 70 70 69 69 68 67 66
102 101 100 98 95 94 94 93 91 89 86 84 84 84 82 80 78 76 73 71 68 66 65 64 63 62 62 62 61 60 59 55 52 54 55 53 50 48 46 44 41 39 39 38 38 37 37 37 37 38 40 41 41 40 40 40 40 41 43 44 45 46 48 51 54 57 58 59 60 60 61 63 64 66 67 69 69 70 71 71 71 72 72 71 71 71
101 101 100 98 95 94 93 92 90 89 88 87 87 86 85 83 82 79 76 73 70 69 68 67 66 65 64 64 63 62 60 57 56 59 59 55 53 51 49 47 45 43 41 40 40 40 39 38 38 39 40 42 42 41 41 41 42 42 43 43 43 44 46 49 51 52 52 53 54 55 56 58 59 61 62 63 65 66 67 68 68 70 71 71 71 72
99 100 99 97 95 95 95 92 90 89 88 88 89 89 88 86 85 82 78 75 74 73 72 71 70 69 67 67 66 65 63 61 61 62 61 58 55 53 51 50 49 47 45 43 42 42 42 41 41 40 41 43 43 43 43 44 44 44 44 45 45 46 47 47 48 48 48 49 50 50 52 54 56 57 57 59 60 61 62 63 64 66 67 68 69 70
98 98 98 96 96 96 95 93 91 90 89 89 90 91 91 90 86 82 80 79 78 76 75 75 74 73 71 70 70 68 67 66 65 65 63 61 58 56 54 52 51 50 49 47 46 45 45 45 44 43 43 44 45 45 46 46 46 46 46 46 47 48 48 48 48 48 48 49 49 49 50 52 54 54 54 56 57 58 59 60 60 61 62 64 65 66
98 97 96 95 95 96 96 95 92 90 89 91 92 93 93 91 88 84 82 82 80 79 79 78 78 77 75 74 73 72 70 69 68 67 66 64 61 59 57 55 54 53 52 51 50 49 48 47 47 47 46 46 46 47 47 48 48 48 48 48 49 50 51 51 51 50 50 50 51 50 51 52 53 53 53 54 56 57 57 58 58 59 59 59 60 61
97 97 94 93 95 96 96 94 91 90 92 93 93 92 92 91 89 87 85 83 82 81 81 80 80 80 79 77 76 76 74 72 70 68 67 66 64 62 60 58 56 56 55 55 54 53 52 51 50 50 49 49 49 49 49 49 50 50 50 50 51 52 54 54 54 53 52 52 52 51 52 52 52 53 54 55 56 57 57 57 57 57 56 57 57 57
96 95 93 93 94 94 93 91 90 92 93 93 92 92 92 92 91 89 88 86 84 82 82 81 81 82 82 81 79 78 76 74 72 70 69 67 66 64 62 61 59 58 57 57 57 56 55 54 53 53 52 52 51 51 51 51 52 52 52 52 53 54 56 57 57 56 55 54 53 53 52 52 52 54 55 56 57 58 59 59 58 56 55 55 55 55
95 94 92 92 92 90 88 89 91 93 94 93 93 94 94 93 92 92 90 88 86 83 82 82 82 82 83 83 82 80 79 77 75 72 70 68 67 66 65 64 62 61 60 59 59 58 58 57 56 56 55 55 54 54 54 54 53 54 55 55 55 56 57 59 59 59 57 56 55 55 54 54 54 55 56 58 59 60 61 61 60 58 56 55 54 55
96 95 93 91 90 87 85 88 92 94 94 94 94 95 95 94 93 92 90 89 88 85 83 83 83 83 83 84 83 82 80 78 76 74 71 70 68 67 67 66 65 64 63 62 61 60 60 59 59 58 58 58 57 57 56 56 56 56 57 57 57 58 59 60 61 61 60 59 57 57 56 56 55 56 57 59 60 61 62 63 62 61 58 56 55 55
98 96 93 91 89 86 85 88 91 92 93 93 93 94 96 95 93 92 91 89 89 87 85 85 84 84 84 84 85 83 81 79 77 75 73 72 71 70 69 68 68 67 66 65 64 63 62 61 61 60 60 60 60 59 59 59 58 59 59 60 60 60 60 61 62 62 63 62 61 59 58 57 57 57 57 58 60 61 63 64 64 62 60 58 57 56
100 97 94 91 89 86 85 88 91 92 93 93 94 95 95 94 93 92 91 90 89 88 87 87 86 85 85 85 85 85 83 81 79 77 76 75 74 72 71 70 70 69 68 67 66 65 64 64 63 62 62 62 63 63 63 63 62 62 62 62 62 63 63 63 63 64 64 64 64 62 61 60 59 58 58 58 60 61 63 64 65 63 61 59 58 57
100 98 96 93 90 87 87 90 92 92 92 92 94 95 95 94 93 92 91 90 89 89 89 89 88 87 87 86 86 86 85 83 81 80 79 77 76 75 74 73 72 71 69 68 67 66 66 66 65 65 65 65 66 66 67 67 67 66 66 66 65 65 65 65 66 66 66 66 66 65 64 63 61 60 59 59 59 61 62 64 64 63 61 60 58 56
101 100 98 96 93 91 91 93 93 90 89 91 94 95 95 94 93 93 92 90 89 89 90 90 89 89 88 87 87 87 86 86 84 82 81 80 79 77 76 75 74 73 72 70 69 69 68 68 68 68 68 68 69 70 70 70 70 70 69 69 69 69 68 69 69 69 69 69 68 67 66 65 64 62 61 60 60 60 61 63 64 63 62 60 57 56
Wind_Direction
260 259 258 257 257 256 256 255 255 254 252 251 249 245 244 245 247 249 250 250 250 248 250 254 255 257 261 265 275 283 297 316 313 243 175 172 182 180 184 195 206 213 221 226 221 217 207 187 187 185 172 172 178 179 179 178 175 171 166 162 158 155 151 144 139 134 130 126 121 116 110 105 103 100 96 93 90 85 81 77 73 68 65 64 62 59
259 259 260 259 258 256 255 253 252 249 246 245 244 242 241 242 242 244 247 248 248 246 245 250 253 252 252 251 258 269 280 299 317 285 214 183 182 183 185 193 205 213 215 222 220 215 208 189 184 186 177 174 177 179 180 179 177 173 169 165 163 161 155 148 142 137 132 129 123 118 112 107 103 99 95 92 90 84 80 76 72 67 64 63 61 59
261 262 261 258 256 254 252 251 250 248 245 243 242 240 238 238 238 239 243 246 248 247 242 244 250 252 249 245 248 258 269 282 307 300 247 204 189 180 181 189 200 205 205 213 215 214 210 193 180 181 179 178 180 181 181 179 178 176 172 170 169 166 159 152 146 141 136 132 126 120 114 109 102 96 91 89 88 83 78 76 72 67 65 64 62 59
262 260 258 256 254 252 251 250 249 248 245 242 241 240 238 238 237 238 240 244 247 248 243 239 244 250 248 241 245 251 260 270 289 299 263 220 202 185 180 185 189 193 198 208 214 213 210 193 179 179 180 182 185 184 181 179 178 178 176 175 175 170 164 157 150 144 140 135 129 124 119 113 106 98 91 88 87 84 80 76 73 69 66 66 63 60
259 258 257 256 254 252 251 250 249 248 245 242 241 241 239 239 238 238 239 242 245 247 245 239 239 247 248 242 244 247 252 258 268 286 265 224 210 199 187 183 181 188 197 209 216 213 206 192 179 179 180 183 186 184 180 179 180 182 181 179 178 175 170 162 155 150 147 142 137 131 126 121 115 107 94 88 87 87 84 78 75 71 68 67 65 61
257 256 255 255 254 253 251 249 248 247 245 243 241 242 242 240 239 238 237 239 243 245 245 241 238 242 245 242 243 245 248 251 251 266 262 229 215 209 199 190 185 193 203 214 217 209 202 191 180 179 181 182 183 180 179 180 182 184 183 182 182 180 175 168 162 159 156 153 148 141 136 131 127 122 108 86 80 86 87 82 77 73 67 66 64 61
252 251 253 255 253 252 250 249 248 248 247 244 244 245 246 242 239 237 235 235 240 243 243 243 239 238 240 240 240 243 245 245 244 251 255 235 220 214 208 200 195 200 207 216 215 204 197 188 178 177 181 183 183 182 182 182 183 183 183 184 185 185 182 176 173 171 169 165 161 155 149 143 139 137 133 99 64 69 79 79 73 72 67 61 60 59
249 251 252 252 250 248 247 248 250 249 247 246 246 247 245 241 237 235 233 232 236 239 239 241 240 236 235 235 236 239 242 241 239 244 249 239 227 219 210 202 197 196 204 213 208 198 190 183 176 177 181 184 186 187 186 184 182 182 183 186 190 192 190 186 185 184 182 178 174 170 164 159 154 154 160 176 3 27 52 62 57 59 62 56 50 49
248 246 243 245 244 243 244 248 248 245 245 245 246 245 243 241 237 234 231 229 232 234 234 236 237 235 232 230 231 235 236 235 235 237 237 231 228 222 208 196 189 186 196 204 199 190 184 179 177 180 182 184 187 189 189 186 184 184 185 189 194 196 196 195 195 195 193 190 186 183 178 175 173 175 181 214 282 324 1 30 37 29 41 49 41 34
242 236 237 240 239 239 242 245 243 243 244 244 244 243 243 241 238 235 231 228 229 230 231 232 233 234 230 225 229 232 229 229 232 231 228 220 218 218 207 193 183 180 186 194 193 187 181 179 180 183 184 185 187 189 191 190 188 188 189 193 197 199 200 201 202 203 202 200 196 193 191 188 189 192 200 222 260 289 312 340 17 10 5 21 27 15
236 233 236 238 238 240 241 240 239 241 242 240 242 243 243 241 238 236 232 229 228 227 229 230 231 234 230 225 227 229 225 223 227 227 222 216 213 213 208 196 184 178 180 187 191 187 182 181 183 185 186 188 190 192 194 195 194 194 196 198 201 204 206 208 210 212 212 210 208 204 201 201 202 206 213 230 257 277 294 309 331 349 345 351 357 354
234 232 233 236 239 240 238 237 237 240 241 239 243 244 242 240 237 235 232 229 228 228 228 229 231 235 232 227 228 228 223 221 224 224 219 212 209 207 205 198 188 180 178 183 189 189 187 185 185 186 188 190 194 197 200 201 203 204 204 206 208 212 215 218 220 222 223 222 220 216 213 214 215 218 224 234 255 273 287 298 309 321 330 337 342 345
231 229 230 234 239 240 239 237 237 240 240 238 241 243 241 239 236 234 231 229 228 229 229 228 232 235 233 230 230 228 225 222 222 223 219 211 205 202 200 196 191 185 181 183 187 191 193 191 188 187 189 193 198 201 205 208 210 211 212 213 216 219 223 226 228 228 228 229 229 227 224 223 224 227 232 238 250 266 281 290 297 306 316 324 330 335
229 229 230 234 240 241 240 238 236 238 239 238 238 242 241 238 236 234 230 229 230 231 230 228 230 234 233 230 229 228 226 223 222 223 222 215 207 202 198 196 195 191 186 185 187 192 197 197 194 192 192 196 200 204 208 212 215 216 217 218 220 223 227 230 233 234 232 232 233 233 232 232 232 234 238 241 247 259 272 280 286 296 304 313 322 326
231 231 231 232 237 239 238 238 237 238 241 240 236 237 236 231 233 234 232 231 232 232 231 228 229 233 233 229 227 228 227 224 222 223 223 220 213 205 200 198 198 196 192 189 189 192 197 201 201 199 198 201 204 207 211 214 217 219 220 221 223 226 229 232 236 239 238 237 236 237 239 240 239 241 244 246 249 255 262 270 277 287 294 302 312 319
230 230 229 230 233 237 239 238 237 236 238 236 232 226 223 226 232 234 231 229 229 231 230 228 228 230 231 229 226 227 228 225 222 222 223 221 218 210 204 200 199 201 200 196 194 195 197 201 203 204 205 207 209 211 214 217 219 221 223 226 228 230 232 233 236 239 240 239 240 242 245 245 244 244 247 250 251 254 258 265 272 279 285 292 299 308
228 227 228 229 231 234 236 236 233 232 233 233 225 215 219 229 234 230 227 225 225 228 228 227 228 227 229 229 225 224 226 225 222 220 221 220 219 216 210 203 201 203 205 204 201 201 202 204 206 207 208 212 215 216 217 219 220 222 225 228 230 232 233 233 235 236 236 237 240 243 245 246 246 245 246 249 252 255 259 264 270 275 279 284 289 297
226 227 229 230 231 232 234 236 235 233 234 233 221 214 221 230 224 218 221 220 223 227 227 229 229 228 228 228 224 222 224 225 223 220 219 218 218 220 216 208 203 204 207 209 207 205 207 209 210 210 210 213 217 219 220 221 222 223 226 229 231 233 233 234 234 233 232 234 236 240 244 248 250 249 249 252 256 260 262 265 269 273 276 279 285 291
224 226 229 230 231 232 233 236 237 234 231 228 222 216 218 218 207 207 212 215 223 227 228 231 232 229 230 229 226 223 223 226 226 223 221 218 218 221 221 215 208 205 207 210 211 210 209 211 213 213 213 214 217 219 221 223 224 226 229 232 234 235 234 233 233 232 233 235 238 242 247 252 255 257 258 259 262 264 265 267 270 272 275 278 282 286
224 225 227 228 230 231 231 232 232 228 223 221 219 211 207 207 201 202 207 213 222 226 225 228 230 230 231 231 228 225 224 226 228 228 225 221 220 222 224 222 217 212 210 211 213 215 214 214 215 217 218 218 219 221 223 225 228 230 232 235 235 235 234 233 233 235 237 241 245 249 252 255 258 261 263 264 266 267 268 269 270 272 275 276 279 282
224 225 226 227 228 228 227 227 226 223 219 217 213 206 203 202 199 199 204 207 215 222 223 224 227 230 231 231 229 226 223 224 226 228 229 226 224 225 225 225 223 220 217 216 215 217 219 218 218 220 221 222 222 223 224 227 230 232 233 234 234 233 233 233 235 238 241 245 249 252 255 257 260 262 264 265 267 269 270 271 271 272 274 274 276 280
222 224 226 227 227 225 223 223 222 220 217 214 210 206 203 200 198 199 203 206 211 220 226 226 225 229 232 233 232 229 225 223 223 224 226 227 226 225 225 224 224 223 222 222 220 219 220 220 221 221 222 223 224 225 226 228 230 232 234 235 234 233 233 235 238 241 244 247 249 252 256 259 262 264 266 267 268 270 273 274 274 273 272 273 275 278
221 222 224 226 226 224 221 221 221 219 217 214 210 208 204 198 197 198 201 208 212 218 229 233 228 225 230 233 232 230 228 225 224 224 225 225 225 224 223 221 220 220 220 222 223 223 222 222 222 223 223 224 226 227 229 230 232 233 234 236 236 237 237 237 239 243 246 248 251 254 256 259 262 266 268 270 271 272 274 275 276 276 274 274 276 278
221 220 222 224 225 223 220 220 221 219 217 214 211 210 204 197 197 197 200 208 211 214 227 237 237 226 221 225 226 224 224 222 223 224 225 225 225 225 224 222 220 220 220 219 220 222 224 224 225 225 224 225 226 227 229 231 234 235 236 237 239 240 241 241 243 246 248 251 253 255 257 259 263 266 269 271 272 272 273 275 277 277 277 277 278 280
221 220 220 223 224 222 220 219 220 220 219 215 212 211 205 199 200 200 203 206 206 209 217 226 239 231 215 213 216 213 214 216 218 221 224 225 226 226 226 225 223 223 222 222 221 221 222 223 224 226 226 227 227 228 229 232 234 236 237 239 241 243 244 245 247 249 251 253 255 256 257 259 262 266 269 271 272 272 271 273 275 276 278 279 280 281
221 220 220 222 224 223 221 219 220 221 220 217 214 213 209 205 203 202 204 202 196 202 205 206 228 230 215 206 209 208 210 213 215 218 222 225 227 228 228 228 227 226 225 225 225 224 224 224 224 225 227 229 231 231 232 234 235 237 238 240 242 244 245 247 249 251 252 254 256 257 258 260 262 265 268 270 271 271 271 271 273 274 277 279 280 281
220 220 220 221 223 223 221 218 218 219 218 216 215 214 211 210 207 203 202 198 192 197 197 196 218 231 222 209 209 211 210 212 215 218 220 223 226 228 230 231 231 231 229 228 228 228 228 228 227 227 228 230 231 233 235 236 237 239 239 241 242 244 245 247 249 251 253 254 256 258 260 261 263 265 267 267 268 270 270 271 272 273 275 277 279 281
219 220 220 220 222 222 221 219 217 217 217 216 215 215 213 211 209 204 200 197 197 199 193 195 213 229 229 217 210 212 213 210 213 218 220 222 225 227 230 231 232 233 233 233 232 231 231 231 230 230 231 231 232 234 235 237 239 240 241 243 244 245 246 247 248 250 253 255 256 258 260 262 264 265 266 266 266 268 269 271 272 273 274 275 277 279
219 219 219 220 221 222 221 220 218 216 216 216 215 216 215 213 211 207 202 200 202 202 197 200 212 227 234 228 216 211 212 210 210 212 215 217 219 224 228 230 232 233 234 235 236 235 235 234 233 233 233 234 235 235 237 238 239 240 242 243 245 245 246 247 248 250 253 255 256 257 259 261 263 264 265 265 266 267 269 270 272 273 274 275 276 276
218 218 218 219 220 221 221 221 219 217 216 215 215 215 216 214 212 209 205 204 204 204 204 209 217 225 234 237 231 220 212 208 209 208 208 209 210 215 220 226 230 233 235 236 237 238 238 238 238 237 236 236 237 237 238 239 239 240 241 243 244 245 247 248 249 250 252 254 255 257 259 260 262 263 264 265 266 268 269 270 271 272 274 274 275 276
218 218 218 218 219 220 221 221 220 218 216 215 214 214 215 215 213 211 209 207 206 205 207 214 219 223 229 236 238 233 219 210 209 209 206 204 206 210 216 222 228 232 235 238 239 240 241 241 241 241 241 240 239 239 240 240 241 241 242 243 244 245 246 247 249 250 252 254 256 258 259 260 261 262 263 264 264 266 267 268 270 271 272 273 275 276
219 218 218 218 219 219 220 221 221 219 217 215 214 214 214 215 214 212 211 210 209 206 208 215 219 223 228 231 235 238 230 215 209 209 208 209 210 212 216 221 226 231 235 238 240 241 242 243 244 244 244 244 243 243 242 243 243 243 244 244 245 246 248 249 250 252 254 255 257 258 260 261 261 261 262 262 263 264 265 267 268 269 270 272 274 276
220 219 218 218 218 219 220 220 221 220 218 216 215 214 214 213 213 213 212 211 210 208 209 214 218 222 227 230 234 240 239 228 215 208 208 212 217 219 221 224 226 229 232 235 238 240 242 243 245 245 246 247 246 246 246 246 246 247 247 247 247 248 249 250 251 253 254 256 257 259 260 262 262 262 263 263 264 265 266 267 268 269 270 271 273 274
220 219 219 219 218 219 220 220 220 221 219 216 216 216 214 213 213 213 213 213 212 211 211 214 217 221 227 231 234 238 242 239 229 217 212 216 221 225 229 230 231 231 233 235 237 239 241 242 243 245 246 247 248 249 249 249 249 250 250 251 251 251 251 252 252 253 254 256 257 258 260 261 262 263 263 264 266 267 267 268 269 269 270 271 272 274
221 220 220 219 219 219 220 220 219 219 219 218 218 218 216 214 214 214 215 215 215 214 214 215 218 222 227 230 232 235 239 243 240 232 227 226 227 230 233 235 237 238 237 238 240 241 243 244 244 246 247 248 249 250 250 251 251 252 253 253 254 254 254 254 255 256 256 257 258 258 259 260 261 263 263 264 265 266 267 269 269 270 271 272 273 274
222 221 221 220 219 219 220 220 219 218 219 219 219 219 218 216 215 214 215 217 217 217 217 218 220 223 227 230 232 234 236 240 242 241 240 239 237 237 237 237 238 240 239 239 240 243 244 245 247 249 250 250 250 251 251 252 253 253 253 254 254 255 256 256 257 257 258 258 259 259 260 260 262 263 264 265 265 266 266 267 268 269 270 271 272 273
223 222 221 221 220 220 220 221 219 218 218 219 220 220 220 219 217 216 215 217 219 218 218 219 221 223 225 229 232 233 235 238 240 242 245 245 244 242 240 239 239 240 241 240 240 242 244 246 248 250 253 254 254 254 254 254 254 254 254 254 255 255 256 257 258 258 258 259 259 260 261 262 263 264 265 266 267 267 267 267 268 269 269 270 271 271
223 223 222 221 221 220 221 221 220 218 217 218 220 221 221 221 220 218 217 218 219 220 220 221 222 223 225 228 230 233 235 236 239 242 244 245 246 245 244 243 241 241 242 243 243 244 245 246 248 251 253 256 257 258 257 257 257 257 256 256 256 257 257 258 259 259 259 260 260 261 262 263 264 265 266 266 267 267 267 268 269 270 271 272 272 272
224 223 223 222 221 221 222 221 220 219 218 218 221 222 222 222 222 220 219 219 220 221 221 222 223 224 226 228 230 233 235 236 238 240 242 243 245 246 247 247 246 244 244 245 247 247 248 248 250 251 253 256 258 260 261 261 261 261 261 260 260 260 260 260 260 261 262 263 263 264 265 265 265 266 266 267 268 268 268 269 270 271 271 272 273 273
224 224 223 223 222 222 223 222 220 219 218 219 221 223 223 223 223 222 221 220 221 222 222 223 224 225 226 228 230 233 235 236 236 238 240 241 243 246 248 248 248 247 247 247 249 250 251 251 250 250 252 254 257 259 261 262 263 264 265 265 265 264 263 262 263 265 266 267 267 267 268 268 268 268 268 269 269 270 270 271 272 272 273 273 274 274
225 224 224 223 222 222 223 222 221 220 219 219 221 223 224 224 224 223 222 222 222 224 224 224 225 226 227 229 230 232 234 235 236 238 240 241 242 244 246 248 250 250 249 248 249 251 252 253 252 251 251 253 255 258 260 262 263 264 265 267 267 267 267 267 269 270 270 271 271 271 271 270 270 270 270 271 272 272 273 274 274 275 276 276 276 276
226 225 224 223 222 222 222 222 221 220 220 220 221 223 224 224 224 224 224 224 224 225 226 226 227 227 228 229 230 231 233 234 236 238 240 241 241 243 245 247 250 252 252 251 250 251 252 254 254 253 252 252 253 256 258 260 262 262 264 265 266 268 269 270 271 271 272 272 273 273 273 274 274 274 275 275 276 276 276 277 277 278 278 279 280 280
227 226 225 223 222 222 222 221 220 219 220 220 221 223 224 225 224 224 225 225 226 226 227 228 228 229 229 230 231 232 232 234 235 237 239 241 242 242 243 245 248 251 253 253 253 253 253 254 254 254 253 252 252 253 255 258 259 261 262 263 265 267 268 268 269 271 272 273 273 274 274 275 276 278 279 279 279 279 279 279 279 279 280 281 281 282
227 227 225 224 223 222 221 221 220 219 220 221 222 223 224 225 225 224 225 225 226 227 228 229 229 230 230 231 232 233 233 233 234 237 239 240 241 243 243 244 246 248 251 253 254 255 254 254 254 254 254 252 252 252 253 254 256 258 259 260 262 264 265 267 268 270 270 271 272 273 273 274 276 278 279 280 280 281 281 281 281 281 281 282 281 282
227 227 226 224 224 222 221 220 219 219 220 221 221 223 224 224 224 224 224 225 226 227 228 229 230 231 232 232 232 233 234 234 234 236 238 239 241 242 244 245 246 247 249 251 253 254 255 255 255 254 254 254 253 252 252 253 254 256 257 258 259 260 263 265 267 268 268 269 270 271 271 272 274 276 277 278 280 281 281 282 282 282 283 283 283 283
226 226 226 225 225 223 221 220 220 220 220 220 221 222 223 223 224 224 224 224 225 226 228 230 231 232 233 233 233 233 234 235 236 236 237 239 241 242 244 245 246 247 248 249 251 252 253 254 254 254 254 254 254 254 253 254 254 255 256 257 257 258 260 262 264 265 266 267 268 269 270 271 272 273 274 275 277 278 279 281 282 283 285 285 285 285
225 226 226 225 225 224 222 221 221 220 220 219 220 222 223 223 224 224 223 224 224 225 226 229 232 233 234 234 234 234 234 235 237 238 238 240 241 242 244 245 247 248 249 249 250 250 251 252 253 254 254 254 254 255 255 255 255 255 256 257 257 258 259 260 262 264 265 266 266 267 268 270 270 271 272 273 274 276 277 279 281 283 285 286 285 284
224 225 225 225 225 223 222 222 223 222 221 220 220 222 223 224 224 224 224 224 225 225 226 228 231 234 235 236 236 236 236 236 237 238 239 240 241 242 244 245 247 248 249 250 250 250 251 251 252 253 254 254 255 255 256 256 256 257 257 258 258 259 259 260 261 263 264 266 266 267 268 269 270 270 271 272 273 275 276 277 279 281 283 284 284 284
223 224 224 224 224 223 222 223 224 223 222 221 221 222 223 224 224 225 224 224 225 226 227 228 230 233 236 238 238 238 237 237 238 239 240 241 242 243 244 245 246 247 249 250 250 251 252 252 252 253 254 255 255 256 256 256 257 257 257 258 259 259 260 261 261 262 264 265 266 268 268 269 269 270 270 272 273 274 275 276 277 279 281 282 283 285
221 222 223 223 223 223 223 224 224 222 221 221 221 222 223 224 225 225 225 225 226 227 228 229 230 232 234 237 239 240 239 239 239 240 240 241 242 243 244 245 246 247 247 248 249 250 251 252 253 254 254 255 255 256 257 258 258 258 259 259 260 260 261 262 262 263 264 265 266 267 268 268 268 269 269 271 272 274 275 277 278 279 281 282 284 286
220 221 221 222 222 222 223 224 223 221 221 221 221 222 223 224 225 226 226 226 227 228 229 230 230 232 234 235 238 240 241 241 241 241 241 242 243 244 245 245 246 247 248 248 249 250 251 252 252 253 254 255 256 256 257 258 259 260 261 261 262 262 262 263 263 264 264 265 266 267 267 268 268 269 270 272 274 276 278 279 280 281 282 283 285 286
Height
10912 10913 10915 10918 10920 10922 10924 10924 10926 10930 10935 10936 10937 10939 10939 10939 10940 10941 10943 10944 10946 10948 10950 10951 10952 10952 10952 10952 10951 10951 10951 10951 10950 10949 10948 10949 10950 10951 10952 10954 10956 10958 10959 10960 10962 10963 10964 10964 10964 10965 10965 10967 10970 10972 10974 10976 10978 10979 10981 10982 10984 10985 10987 10988 10989 10990 10991 10992 10993 10994 10994 10994 10995 10995 10996 10996 10996 10996 10996 10996 10996 10996 10995 10995 10995 10995
10905 10907 10910 10913 10915 10917 10918 10918 10920 10924 10928 10930 10931 10933 10934 10934 10936 10939 10940 10941 10943 10946 10948 10949 10950 10950 10950 10950 10949 10949 10949 10949 10948 10948 10947 10947 10948 10949 10950 10952 10954 10956 10957 10959 10960 10962 10963 10963 10963 10965 10966 10967 10969 10972 10974 10976 10977 10979 10981 10982 10984 10985 10987 10988 10989 10990 10991 10991 10992 10993 10994 10994 10994 10995 10995 10996 10996 10996 10996 10996 10996 10996 10995 10995 10995 10995
10900 10904 10905 10907 10909 10910 10911 10912 10914 10917 10922 10924 10924 10926 10927 10927 10932 10936 10936 10938 10940 10943 10945 10947 10947 10948 10949 10949 10948 10947 10948 10947 10946 10946 10946 10946 10946 10947 10948 10950 10952 10954 10956 10957 10959 10960 10961 10962 10962 10964 10966 10967 10968 10970 10972 10975 10977 10979 10980 10982 10983 10985 10986 10987 10988 10989 10990 10991 10992 10993 10993 10993 10994 10994 10995 10995 10996 10996 10996 10996 10996 10996 10996 10995 10995 10995
10896 10898 10898 10900 10903 10904 10905 10907 10908 10911 10916 10918 10918 10919 10919 10923 10930 10932 10934 10937 10937 10939 10943 10945 10945 10945 10946 10947 10946 10946 10946 10945 10944 10944 10945 10945 10945 10946 10946 10947 10949 10951 10954 10955 10957 10958 10960 10960 10961 10963 10965 10967 10968 10970 10972 10974 10976 10978 10980 10982 10983 10985 10986 10987 10988 10989 10990 10991 10992 10992 10993 10993 10993 10993 10994 10995 10995 10995 10995 10995 10995 10996 10996 10996 10995 10995
10890 10892 10892 10895 10897 10898 10900 10901 10903 10906 10910 10912 10912 10912 10914 10921 10927 10929 10933 10935 10934 10936 10939 10942 10943 10942 10943 10945 10944 10944 10944 10943 10943 10943 10943 10943 10944 10944 10944 10945 10947 10949 10952 10954 10955 10957 10958 10959 10960 10962 10964 10966 10968 10970 10972 10974 10976 10978 10980 10982 10983 10984 10985 10986 10987 10989 10990 10990 10991 10992 10992 10992 10992 10993 10993 10994 10995 10995 10995 10995 10995 10996 10996 10996 10995 10995
10885 10887 10887 10890 10892 10893 10895 10896 10898 10901 10904 10907 10906 10905 10911 10919 10923 10925 10930 10931 10931 10932 10935 10939 10940 10939 10940 10942 10942 10942 10942 10942 10941 10941 10942 10942 10942 10943 10943 10943 10945 10947 10950 10952 10953 10954 10956 10957 10958 10960 10963 10965 10968 10970 10971 10973 10975 10977 10979 10981 10982 10984 10985 10986 10987 10988 10989 10990 10990 10991 10991 10992 10992 10992 10993 10993 10994 10995 10995 10995 10995 10996 10996 10995 10995 10995
10879 10882 10883 10885 10887 10888 10889 10891 10894 10897 10899 10901 10901 10903 10909 10915 10918 10921 10925 10928 10928 10928 10932 10935 10935 10935 10937 10938 10939 10940 10940 10940 10940 10940 10940 10940 10941 10941 10942 10942 10943 10945 10947 10950 10951 10952 10954 10956 10958 10960 10963 10966 10968 10969 10971 10972 10974 10976 10978 10980 10982 10983 10984 10985 10986 10987 10988 10989 10990 10990 10991 10991 10991 10992 10992 10993 10993 10994 10995 10995 10995 10995 10995 10995 10995 10995
10875 10880 10879 10881 10883 10883 10884 10887 10891 10893 10894 10896 10898 10901 10904 10908 10912 10915 10920 10924 10923 10923 10929 10930 10928 10931 10933 10934 10937 10937 10937 10938 10938 10938 10939 10939 10939 10940 10940 10940 10941 10943 10945 10948 10949 10951 10953 10955 10957 10959 10962 10965 10968 10969 10971 10972 10973 10975 10977 10980 10981 10983 10984 10985 10985 10986 10987 10988 10988 10989 10990 10990 10991 10991 10992 10992 10993 10993 10994 10994 10995 10995 10995 10995 10995 10995
10873 10878 10875 10877 10879 10878 10880 10885 10888 10888 10889 10892 10895 10896 10898 10902 10906 10909 10914 10917 10917 10919 10924 10922 10922 10925 10928 10932 10934 10934 10935 10936 10936 10937 10937 10937 10938 10939 10939 10939 10939 10940 10943 10946 10948 10949 10951 10954 10956 10958 10960 10963 10966 10969 10971 10972 10973 10974 10976 10978 10980 10981 10982 10983 10984 10985 10986 10986 10987 10988 10989 10990 10991 10991 10991 10992 10992 10993 10993 10994 10994 10994 10995 10995 10995 10995
10871 10873 10871 10874 10873 10873 10879 10883 10883 10883 10887 10890 10890 10891 10894 10898 10901 10904 10908 10910 10912 10915 10915 10914 10916 10918 10924 10930 10930 10929 10932 10934 10934 10935 10936 10936 10936 10938 10938 10937 10937 10938 10941 10945 10947 10949 10950 10952 10955 10957 10959 10961 10965 10967 10969 10971 10972 10973 10975 10977 10978 10980 10981 10982 10983 10983 10984 10985 10986 10987 10988 10989 10990 10991 10991 10992 10992 10992 10993 10994 10994 10994 10994 10995 10995 10994
10866 10867 10869 10869 10866 10870 10877 10879 10878 10880 10884 10886 10886 10888 10892 10894 10897 10899 10901 10904 10906 10907 10906 10908 10911 10913 10920 10926 10925 10926 10930 10932 10933 10933 10934 10935 10935 10937 10938 10937 10937 10937 10939 10944 10947 10949 10949 10951 10953 10955 10958 10960 10963 10965 10967 10969 10971 10972 10974 10976 10977 10979 10980 10981 10982 10983 10984 10985 10986 10987 10988 10989 10990 10991 10991 10991 10991 10992 10992 10993 10994 10994 10994 10994 10994 10994
10858 10863 10865 10862 10860 10868 10872 10873 10875 10878 10881 10883 10883 10886 10889 10890 10892 10893 10895 10898 10899 10899 10900 10905 10908 10909 10915 10921 10921 10924 10928 10930 10930 10931 10933 10934 10935 10936 10937 10937 10937 10937 10938 10942 10946 10949 10949 10950 10952 10954 10957 10959 10962 10964 10966 10968 10970 10971 10973 10975 10976 10978 10979 10981 10982 10982 10983 10984 10985 10986 10987 10988 10989 10990 10990 10991 10991 10991 10991 10992 10992 10993 10993 10993 10993 10993
10850 10857 10857 10854 10857 10863 10867 10869 10873 10875 10877 10879 10881 10883 10885 10887 10888 10888 10890 10891 10893 10894 10898 10903 10905 10904 10910 10916 10919 10922 10926 10927 10928 10929 10931 10932 10933 10935 10936 10936 10937 10937 10938 10940 10944 10948 10949 10950 10952 10953 10956 10958 10960 10962 10964 10966 10968 10970 10972 10974 10975 10977 10978 10980 10981 10982 10982 10983 10984 10985 10986 10987 10988 10989 10989 10990 10990 10990 10990 10990 10991 10991 10992 10992 10992 10992
10844 10849 10853 10854 10855 10858 10861 10865 10868 10870 10872 10875 10879 10880 10882 10884 10884 10883 10885 10888 10890 10892 10895 10899 10900 10899 10904 10912 10915 10918 10922 10924 10926 10927 10928 10930 10932 10933 10934 10935 10936 10936 10937 10939 10942 10945 10949 10951 10951 10953 10954 10956 10958 10960 10962 10964 10966 10968 10971 10972 10974 10975 10976 10978 10979 10980 10981 10982 10982 10983 10984 10985 10986 10987 10988 10989 10989 10989 10989 10989 10989 10990 10990 10991 10991 10991
10841 10846 10851 10851 10849 10851 10855 10859 10862 10866 10869 10873 10876 10878 10880 10881 10879 10880 10883 10886 10887 10889 10891 10893 10894 10894 10898 10906 10911 10914 10917 10921 10923 10925 10926 10928 10930 10931 10933 10933 10934 10935 10936 10938 10940 10943 10946 10949 10951 10952 10953 10954 10956 10958 10960 10962 10964 10967 10969 10971 10972 10973 10974 10975 10977 10978 10979 10980 10981 10982 10983 10984 10985 10985 10986 10987 10987 10988 10988 10987 10988 10988 10988 10989 10989 10989
10837 10842 10844 10843 10844 10847 10851 10854 10859 10863 10866 10869 10873 10876 10876 10875 10875 10878 10881 10883 10884 10884 10884 10885 10886 10888 10892 10899 10906 10910 10913 10917 10920 10922 10924 10925 10927 10929 10930 10931 10932 10934 10935 10937 10938 10940 10943 10947 10949 10951 10952 10953 10954 10956 10958 10960 10962 10965 10967 10968 10970 10971 10972 10974 10975 10976 10977 10977 10978 10979 10981 10981 10982 10983 10984 10985 10985 10986 10986 10986 10986 10986 10986 10987 10987 10988
10832 10835 10835 10837 10841 10843 10844 10848 10854 10859 10861 10865 10870 10871 10871 10871 10874 10877 10878 10879 10879 10877 10877 10878 10880 10883 10887 10893 10900 10905 10908 10912 10916 10918 10920 10922 10924 10926 10927 10929 10930 10932 10934 10936 10938 10940 10942 10945 10947 10949 10951 10952 10953 10954 10956 10958 10961 10963 10964 10965 10967 10969 10970 10972 10973 10974 10975 10975 10976 10977 10978 10979 10980 10981 10982 10983 10983 10984 10984 10984 10984 10984 10984 10985 10985 10986
10825 10827 10827 10832 10835 10835 10838 10843 10850 10856 10859 10863 10866 10867 10868 10871 10874 10874 10874 10875 10874 10873 10874 10874 10876 10880 10882 10886 10894 10900 10903 10906 10910 10913 10916 10919 10922 10923 10924 10926 10928 10930 10933 10935 10937 10939 10941 10943 10945 10946 10948 10950 10951 10953 10955 10957 10959 10960 10961 10963 10964 10966 10968 10970 10971 10971 10972 10973 10974 10975 10976 10976 10977 10978 10980 10981 10981 10982 10982 10983 10983 10983 10983 10983 10983 10984
10818 10819 10821 10826 10827 10829 10834 10840 10847 10853 10857 10859 10861 10864 10867 10869 10870 10870 10871 10871 10870 10871 10872 10872 10873 10876 10877 10882 10890 10897 10900 10902 10906 10909 10913 10917 10919 10920 10921 10924 10926 10928 10930 10933 10935 10937 10938 10940 10942 10943 10945 10947 10949 10951 10953 10955 10957 10958 10959 10960 10962 10963 10966 10967 10968 10969 10970 10971 10972 10973 10974 10974 10975 10976 10977 10978 10979 10980 10980 10981 10981 10981 10981 10981 10981 10982
10809 10811 10814 10817 10818 10823 10830 10836 10843 10848 10850 10852 10856 10860 10863 10865 10866 10867 10868 10868 10868 10869 10869 10869 10870 10872 10875 10880 10886 10891 10895 10899 10902 10906 10910 10914 10916 10918 10920 10922 10924 10926 10928 10930 10933 10935 10936 10937 10939 10941 10944 10945 10947 10949 10951 10953 10955 10955 10957 10958 10959 10961 10963 10964 10965 10966 10967 10968 10969 10970 10971 10972 10973 10974 10975 10976 10976 10977 10978 10979 10979 10979 10979 10979 10979 10979
10800 10803 10806 10808 10810 10818 10826 10833 10837 10840 10842 10846 10850 10854 10857 10858 10861 10863 10864 10866 10866 10865 10865 10866 10868 10871 10873 10876 10880 10884 10890 10894 10898 10902 10907 10910 10914 10917 10918 10920 10922 10924 10926 10928 10930 10932 10933 10936 10938 10940 10942 10944 10946 10948 10950 10951 10952 10953 10954 10955 10957 10959 10960 10962 10963 10964 10965 10966 10967 10968 10969 10970 10971 10971 10972 10973 10974 10975 10976 10977 10977 10977 10977 10976 10976 10976
10792 10796 10799 10800 10805 10814 10821 10825 10827 10831 10835 10840 10844 10848 10851 10854 10857 10860 10862 10863 10863 10862 10863 10865 10868 10870 10871 10873 10876 10880 10884 10888 10892 10896 10900 10905 10909 10912 10915 10917 10920 10921 10923 10924 10926 10928 10930 10933 10935 10937 10939 10942 10944 10946 10947 10948 10949 10950 10951 10952 10954 10956 10957 10959 10960 10962 10963 10963 10964 10965 10966 10967 10968 10969 10969 10970 10972 10972 10973 10974 10974 10975 10974 10973 10973 10973
10785 10789 10791 10793 10799 10807 10813 10816 10820 10825 10830 10835 10840 10844 10847 10852 10855 10859 10860 10860 10861 10862 10862 10864 10867 10869 10870 10871 10873 10875 10879 10883 10887 10890 10894 10898 10901 10904 10908 10911 10914 10916 10918 10920 10923 10925 10927 10929 10931 10933 10936 10938 10940 10941 10943 10944 10945 10946 10947 10949 10951 10952 10953 10955 10957 10958 10959 10959 10960 10962 10963 10964 10965 10966 10967 10968 10969 10970 10971 10971 10971 10971 10970 10970 10970 10970
10775 10780 10783 10786 10791 10798 10804 10808 10813 10819 10824 10830 10836 10840 10844 10849 10852 10854 10856 10856 10859 10862 10862 10863 10864 10866 10867 10868 10870 10872 10875 10877 10881 10884 10887 10891 10894 10898 10901 10904 10907 10910 10912 10916 10918 10921 10923 10925 10926 10928 10931 10932 10934 10936 10937 10939 10939 10941 10943 10945 10946 10947 10948 10951 10953 10954 10955 10955 10956 10958 10959 10960 10961 10962 10964 10965 10966 10967 10967 10968 10967 10967 10966 10966 10967 10967
10765 10771 10776 10778 10782 10789 10796 10803 10809 10815 10821 10827 10832 10836 10841 10844 10846 10849 10852 10854 10858 10860 10861 10861 10860 10860 10863 10865 10867 10869 10871 10872 10875 10878 10881 10884 10887 10891 10894 10898 10902 10905 10909 10912 10914 10916 10918 10920 10922 10923 10925 10927 10928 10930 10932 10934 10935 10936 10938 10940 10941 10942 10944 10947 10949 10949 10950 10951 10952 10953 10954 10956 10957 10959 10960 10962 10963 10963 10964 10964 10964 10963 10963 10963 10963 10963
10756 10762 10768 10771 10775 10783 10792 10800 10806 10811 10816 10822 10827 10831 10836 10839 10842 10846 10848 10852 10856 10856 10858 10859 10855 10854 10858 10862 10863 10866 10867 10869 10871 10874 10876 10879 10882 10886 10889 10893 10897 10901 10904 10907 10909 10912 10914 10916 10918 10920 10921 10922 10924 10926 10928 10929 10930 10932 10933 10935 10936 10937 10940 10942 10944 10944 10945 10946 10947 10948 10949 10951 10953 10955 10957 10958 10958 10959 10959 10960 10960 10960 10959 10959 10959 10959
10746 10753 10759 10764 10769 10776 10784 10792 10797 10801 10807 10814 10818 10823 10828 10832 10837 10841 10845 10850 10852 10852 10855 10855 10850 10849 10854 10859 10861 10863 10865 10866 10868 10870 10873 10876 10879 10882 10885 10888 10892 10895 10898 10901 10904 10907 10909 10912 10914 10916 10917 10919 10920 10921 10923 10924 10926 10927 10928 10930 10931 10933 10936 10937 10938 10939 10939 10940 10942 10943 10944 10946 10948 10950 10952 10953 10953 10954 10955 10955 10956 10956 10955 10954 10954 10955
10737 10744 10751 10756 10761 10768 10775 10781 10787 10793 10800 10806 10811 10816 10821 10826 10831 10836 10842 10846 10847 10849 10852 10849 10845 10846 10850 10855 10858 10860 10861 10863 10865 10867 10870 10872 10875 10877 10880 10883 10886 10889 10892 10895 10898 10900 10903 10906 10908 10911 10913 10914 10916 10917 10918 10920 10921 10922 10924 10925 10926 10929 10931 10932 10933 10934 10934 10935 10937 10937 10938 10941 10943 10945 10947 10947 10948 10949 10950 10950 10951 10951 10950 10950 10950 10951
10727 10734 10741 10747 10754 10760 10766 10772 10779 10786 10792 10799 10805 10810 10815 10821 10826 10832 10838 10841 10843 10847 10847 10842 10841 10844 10846 10849 10853 10856 10857 10860 10862 10865 10867 10868 10871 10873 10875 10878 10880 10883 10885 10888 10891 10894 10897 10899 10902 10905 10907 10909 10911 10912 10914 10915 10917 10918 10919 10920 10922 10924 10925 10927 10929 10929 10929 10930 10931 10932 10933 10936 10938 10940 10941 10942 10942 10943 10944 10945 10945 10945 10945 10945 10945 10946
10716 10724 10732 10739 10746 10752 10757 10763 10771 10778 10785 10791 10798 10803 10809 10815 10821 10827 10832 10834 10837 10841 10841 10837 10840 10842 10841 10843 10847 10850 10853 10857 10859 10861 10862 10864 10867 10870 10871 10873 10875 10877 10880 10882 10885 10888 10891 10894 10896 10899 10901 10904 10905 10906 10908 10910 10911 10913 10914 10915 10917 10918 10920 10922 10924 10924 10924 10924 10925 10926 10928 10931 10932 10934 10935 10936 10937 10938 10939 10940 10940 10940 10939 10939 10939 10940
10706 10714 10723 10730 10736 10743 10748 10754 10761 10769 10777 10784 10790 10797 10802 10808 10814 10820 10825 10828 10831 10835 10835 10834 10837 10840 10837 10837 10839 10843 10848 10853 10855 10858 10860 10862 10865 10867 10868 10870 10872 10874 10876 10878 10880 10883 10886 10888 10891 10893 10895 10897 10898 10900 10902 10903 10905 10907 10908 10910 10911 10912 10914 10917 10918 10919 10919 10919 10920 10922 10923 10925 10927 10928 10929 10930 10931 10932 10934 10935 10935 10935 10934 10934 10933 10934
10695 10704 10713 10720 10726 10733 10739 10745 10752 10760 10768 10776 10783 10790 10796 10802 10808 10812 10817 10821 10824 10827 10829 10830 10834 10837 10833 10831 10833 10837 10842 10848 10852 10855 10858 10860 10862 10864 10865 10867 10869 10870 10872 10874 10876 10878 10880 10882 10884 10887 10888 10890 10892 10894 10896 10897 10899 10901 10902 10904 10905 10907 10910 10913 10913 10914 10914 10914 10916 10917 10917 10918 10921 10922 10922 10923 10925 10927 10929 10930 10930 10929 10929 10929 10929 10929
10685 10694 10703 10708 10716 10724 10730 10736 10743 10750 10758 10767 10776 10783 10789 10794 10800 10804 10809 10813 10816 10820 10824 10826 10830 10831 10828 10828 10832 10834 10837 10842 10848 10852 10855 10857 10859 10861 10862 10864 10865 10867 10868 10870 10872 10874 10875 10877 10879 10880 10881 10883 10885 10887 10890 10892 10894 10895 10896 10898 10901 10904 10907 10907 10907 10908 10908 10909 10910 10911 10911 10912 10914 10915 10916 10917 10919 10922 10924 10924 10924 10924 10924 10925 10925 10925
10673 10683 10691 10698 10707 10715 10720 10727 10733 10739 10749 10762 10770 10775 10781 10787 10793 10797 10801 10805 10809 10813 10817 10821 10825 10826 10823 10825 10830 10831 10831 10835 10841 10847 10852 10854 10856 10858 10859 10860 10862 10863 10864 10866 10867 10869 10870 10872 10874 10874 10875 10877 10879 10881 10884 10886 10887 10889 10891 10893 10896 10898 10900 10900 10900 10901 10902 10903 10904 10905 10905 10906 10906 10907 10909 10911 10914 10916 10918 10918 10918 10918 10919 10920 10921 10921
10663 10672 10680 10688 10697 10705 10710 10715 10721 10731 10745 10757 10762 10767 10773 10780 10785 10790 10794 10798 10801 10806 10811 10816 10820 10821 10820 10822 10825 10826 10827 10829 10835 10842 10847 10850 10852 10854 10855 10857 10858 10859 10861 10862 10863 10864 10865 10867 10868 10869 10870 10872 10874 10876 10878 10879 10881 10884 10886 10887 10889 10891 10892 10893 10894 10895 10896 10896 10897 10898 10899 10899 10899 10899 10901 10904 10908 10910 10911 10911 10910 10911 10912 10914 10915 10915
10652 10660 10668 10678 10686 10694 10698 10703 10714 10730 10741 10748 10753 10759 10765 10771 10777 10783 10787 10790 10794 10800 10807 10812 10815 10816 10816 10817 10819 10821 10823 10826 10830 10836 10840 10843 10846 10849 10851 10852 10853 10855 10856 10858 10859 10859 10860 10862 10863 10863 10865 10867 10869 10870 10872 10874 10876 10878 10880 10881 10882 10884 10885 10886 10887 10888 10888 10889 10889 10890 10892 10893 10893 10893 10894 10897 10901 10904 10904 10903 10902 10902 10904 10906 10908 10909
10638 10647 10657 10666 10675 10683 10689 10697 10710 10724 10731 10738 10745 10749 10755 10762 10768 10774 10779 10782 10787 10794 10800 10805 10807 10809 10811 10811 10811 10815 10818 10821 10826 10831 10833 10835 10838 10841 10844 10847 10849 10850 10851 10853 10854 10855 10856 10857 10858 10858 10860 10861 10863 10865 10867 10869 10871 10872 10873 10874 10875 10876 10877 10878 10879 10879 10880 10881 10882 10884 10886 10887 10888 10887 10888 10889 10893 10895 10895 10894 10895 10895 10896 10898 10901 10902
10625 10636 10646 10655 10665 10673 10679 10689 10702 10714 10724 10733 10736 10739 10746 10753 10758 10765 10771 10775 10780 10787 10793 10797 10799 10802 10803 10803 10805 10808 10811 10817 10824 10826 10825 10826 10829 10833 10837 10840 10843 10845 10846 10848 10849 10851 10852 10853 10853 10854 10855 10856 10857 10859 10862 10863 10864 10866 10866 10867 10869 10870 10871 10871 10870 10870 10872 10874 10875 10878 10880 10881 10881 10881 10881 10882 10884 10886 10886 10886 10887 10888 10889 10891 10892 10893
10614 10625 10634 10644 10655 10664 10671 10683 10696 10708 10719 10725 10726 10729 10737 10743 10748 10756 10763 10768 10775 10780 10785 10789 10791 10793 10796 10797 10799 10801 10806 10814 10819 10817 10815 10818 10822 10825 10829 10833 10836 10839 10841 10843 10844 10846 10847 10848 10849 10850 10850 10851 10852 10854 10855 10857 10858 10859 10860 10861 10863 10864 10865 10864 10862 10863 10865 10868 10870 10872 10873 10873 10873 10873 10873 10874 10875 10876 10877 10878 10880 10880 10881 10882 10883 10883
10604 10614 10623 10636 10649 10658 10664 10675 10688 10699 10708 10714 10717 10720 10727 10733 10739 10746 10754 10763 10769 10772 10776 10780 10782 10785 10788 10790 10792 10796 10800 10807 10809 10805 10806 10812 10817 10819 10822 10826 10829 10833 10836 10838 10840 10841 10842 10844 10845 10845 10845 10846 10847 10848 10849 10850 10852 10853 10854 10855 10857 10858 10857 10857 10857 10858 10861 10862 10864 10865 10865 10865 10865 10865 10865 10866 10866 10867 10868 10870 10871 10871 10871 10873 10874 10874
10593 10603 10614 10628 10641 10647 10653 10664 10678 10689 10697 10704 10708 10711 10715 10722 10728 10737 10748 10757 10760 10762 10767 10771 10773 10776 10780 10782 10785 10789 10792 10797 10798 10798 10800 10806 10811 10814 10817 10819 10822 10826 10830 10833 10834 10835 10837 10838 10839 10841 10841 10841 10842 10843 10844 10845 10846 10846 10847 10849 10850 10850 10850 10851 10853 10854 10855 10856 10856 10857 10857 10856 10856 10857 10858 10859 10859 10860 10861 10861 10862 10862 10862 10863 10864 10865
10582 10592 10603 10617 10628 10635 10643 10654 10666 10677 10686 10694 10698 10700 10704 10710 10720 10732 10741 10746 10749 10754 10758 10761 10764 10768 10771 10774 10777 10780 10783 10787 10790 10791 10794 10800 10804 10808 10811 10814 10816 10819 10822 10826 10828 10830 10831 10832 10834 10835 10836 10836 10837 10837 10838 10839 10840 10840 10842 10843 10843 10843 10844 10845 10846 10847 10848 10848 10849 10849 10850 10849 10848 10850 10851 10852 10852 10853 10854 10854 10854 10855 10854 10854 10855 10855
10570 10580 10592 10606 10617 10625 10632 10640 10654 10669 10679 10683 10685 10689 10694 10702 10714 10726 10731 10734 10740 10746 10748 10751 10755 10759 10762 10765 10768 10771 10775 10779 10782 10784 10788 10792 10797 10801 10805 10808 10811 10812 10815 10818 10821 10823 10825 10826 10827 10829 10830 10831 10831 10832 10832 10833 10834 10835 10836 10836 10837 10837 10838 10838 10838 10840 10841 10841 10842 10843 10843 10843 10843 10844 10845 10845 10845 10845 10846 10846 10846 10847 10847 10847 10847 10846
10559 10569 10582 10594 10602 10609 10618 10630 10648 10662 10667 10669 10675 10683 10689 10697 10706 10714 10719 10724 10731 10735 10737 10742 10746 10748 10752 10756 10758 10761 10766 10770 10774 10778 10781 10785 10789 10794 10798 10802 10805 10807 10809 10810 10812 10815 10817 10819 10820 10822 10823 10824 10825 10826 10826 10827 10827 10828 10829 10830 10830 10831 10830 10830 10831 10832 10834 10834 10835 10836 10836 10837 10837 10838 10838 10838 10837 10837 10838 10838 10838 10839 10840 10840 10840 10840
10549 10559 10570 10580 10587 10597 10610 10625 10641 10649 10654 10662 10671 10676 10680 10687 10694 10701 10708 10715 10720 10724 10728 10732 10736 10738 10742 10746 10749 10753 10757 10761 10766 10771 10774 10778 10783 10787 10791 10794 10798 10801 10802 10804 10805 10807 10809 10811 10813 10814 10815 10817 10818 10819 10820 10820 10821 10821 10822 10823 10824 10824 10824 10824 10824 10825 10826 10826 10828 10829 10829 10830 10830 10830 10830 10830 10830 10830 10830 10830 10831 10832 10833 10833 10832 10832
10541 10549 10558 10568 10578 10590 10605 10619 10629 10635 10643 10653 10661 10662 10667 10675 10682 10689 10697 10704 10710 10716 10720 10722 10725 10729 10731 10735 10740 10744 10748 10753 10758 10764 10768 10773 10777 10781 10784 10787 10790 10793 10795 10797 10798 10800 10801 10803 10804 10806 10808 10809 10810 10812 10813 10814 10815 10815 10815 10816 10817 10817 10818 10818 10817 10818 10818 10819 10820 10821 10822 10823 10823 10823 10822 10822 10823 10823 10822 10822 10823 10825 10825 10826 10826 10824
10530 10537 10546 10558 10570 10582 10597 10608 10614 10620 10630 10641 10648 10651 10656 10664 10671 10679 10688 10695 10701 10707 10712 10714 10716 10719 10722 10726 10730 10735 10740 10746 10752 10757 10763 10767 10771 10774 10777 10779 10782 10785 10787 10789 10791 10792 10793 10795 10796 10797 10799 10801 10802 10804 10805 10807 10808 10808 10808 10809 10810 10810 10811 10811 10811 10810 10811 10811 10812 10813 10814 10815 10815 10815 10815 10815 10815 10815 10815 10814 10815 10816 10818 10819 10817 10815
10517 10526 10537 10550 10561 10573 10587 10597 10602 10610 10621 10631 10638 10642 10647 10655 10663 10671 10679 10686 10692 10698 10703 10707 10708 10710 10713 10717 10721 10726 10733 10739 10745 10750 10755 10759 10763 10766 10769 10772 10774 10776 10779 10780 10782 10784 10785 10787 10788 10790 10791 10792 10794 10796 10797 10798 10800 10801 10801 10802 10802 10802 10803 10803 10803 10803 10803 10803 10804 10805 10806 10807 10807 10807 10807 10807 10807 10807 10807 10807 10807 10809 10811 10810 10808 10806
10506 10519 10531 10542 10551 10564 10578 10586 10590 10597 10607 10618 10627 10632 10638 10646 10655 10662 10669 10676 10682 10688 10693 10696 10699 10702 10704 10707 10712 10718 10725 10731 10736 10741 10745 10749 10753 10757 10760 10763 10766 10768 10770 10772 10774 10776 10777 10779 10780 10782 10783 10784 10784 10786 10787 10788 10790 10791 10792 10793 10794 10794 10795 10795 10795 10796 10796 10796 10796 10797 10798 10798 10799 10799 10799 10800 10800 10800 10800 10799 10800 10802 10803 10802 10800 10798
10500 10513 10523 10531 10542 10557 10568 10570 10572 10581 10595 10607 10616 10621 10628 10636 10644 10651 10659 10665 10672 10677 10680 10684 10689 10693 10696 10699 10703 10708 10714 10720 10726 10731 10735 10740 10744 10747 10751 10754 10757 10759 10761 10763 10765 10768 10769 10771 10773 10774 10775 10776 10776 10777 10777 10778 10779 10781 10782 10784 10785 10786 10786 10787 10787 10787 10788 10788 10788 10789 10789 10790 10791 10791 10792 10792 10792 10792 10791 10791 10792 10794 10795 10794 10792 10791
10494 10502 10509 10520 10533 10545 10549 10550 10558 10573 10587 10597 10603 10610 10619 10628 10635 10641 10648 10655 10662 10666 10668 10672 10679 10684 10687 10692 10695 10699 10704 10710 10716 10721 10726 10730 10734 10738 10742 10745 10747 10750 10752 10755 10757 10759 10761 10763 10765 10766 10767 10768 10768 10768 10769 10769 10770 10771 10773 10774 10775 10776 10777 10777 10778 10778 10779 10779 10780 10780 10781 10782 10783 10783 10784 10784 10784 10784 10783 10783 10783 10785 10786 10786 10785 10784